Weather History for Traverse City, MI

Change the Weather History Date:

Thursday, September 13, 2012

  Actual Average Record
Temperature  
Mean Temperature 60 °F 61 °F  
Max Temperature 69 °F 71 °F 93 °F (1952)
Min Temperature 51 °F 51 °F 28 °F (1963)
Degree Days  
Heating Degree Days 5 5  
Month to date heating degree days 23 51  
Since 1 July heating degree days 38 120  
Cooling Degree Days 0 1  
Month to date cooling degree days 55 25  
Year to date cooling degree days 807 394  
Growing Degree Days 12 (Base 50)    
Moisture  
Dew Point 51 °F    
Average Humidity 68    
Maximum Humidity 93    
Minimum Humidity 42    
Precipitation  
Precipitation 0.03 in 0.12 in 2.36 in (1961)
Month to date precipitation 1.41 1.53  
Year to date precipitation 19.63 22.64  
Sea Level Pressure  
Sea Level Pressure 30.22 in    
Wind  
Wind Speed 5 mph (NNW)    
Max Wind Speed 16 mph    
Max Gust Speed 20 mph    
Visibility 10 miles    
Events Rain    
T = Trace of Precipitation, MM = Missing Value Source: NWS Daily Summary

Daily Weather History Graph

Daily Weather History Graph

Search for Another Location

Airport:

Trip Planner

Search our weather history database for the weather conditions in past years. The results will help you decide how hot, cold, wet, or windy it might be!

Date:

Astronomy

Sep. 13, 2012 Rise Set
Actual Time 7:19 AM EDT 7:55 PM EDT
Civil Twilight 6:49 AM EDT 8:25 PM EDT
Nautical Twilight 6:15 AM EDT 9:00 PM EDT
Astronomical Twilight 5:38 AM EDT 9:36 PM EDT
Moon 4:33 AM EDT (9/13) 6:21 PM EDT (9/13)
Length of Visible Light 13h 35m
Length of Day
12h 36m
Waning Crescent, 7% of the Moon is Illuminated
Sep 13
Waning Crescent
Sep 15
New
Sep 22
First Quarter
Sep 29
Full
Oct 8
Last Quarter

Hourly Weather History & Observations

Time (EDT) Temp. Dew Point Humidity Pressure Visibility Wind Dir Wind Speed Gust Speed Precip Events Conditions
12:53 AM 69.1 °F 46.9 °F 45% 30.14 in 10.0 mi NNW 4.6 mph - N/A   Clear
1:53 AM 68.0 °F 44.1 °F 42% 30.14 in 10.0 mi North 6.9 mph - N/A   Clear
2:53 AM 66.9 °F 48.0 °F 51% 30.14 in 10.0 mi NNE 6.9 mph - N/A   Clear
3:34 AM 66.2 °F 48.2 °F 52% 30.14 in 10.0 mi North 5.8 mph - N/A   Mostly Cloudy
3:53 AM 66.0 °F 53.1 °F 63% 30.14 in 10.0 mi NNW 10.4 mph 18.4 mph N/A   Overcast
4:53 AM 64.0 °F 53.1 °F 67% 30.15 in 10.0 mi NNW 5.8 mph - N/A   Mostly Cloudy
5:53 AM 64.0 °F 54.0 °F 70% 30.17 in 10.0 mi North 8.1 mph - N/A   Overcast
6:34 AM 64.4 °F 55.4 °F 73% 30.18 in 10.0 mi North 6.9 mph - N/A   Overcast
6:53 AM 64.0 °F 48.9 °F 58% 30.18 in 10.0 mi NNW 8.1 mph - N/A   Overcast
7:53 AM 64.0 °F 46.9 °F 54% 30.20 in 10.0 mi North 11.5 mph - N/A   Overcast
8:53 AM 64.0 °F 46.9 °F 54% 30.21 in 10.0 mi North 8.1 mph - N/A   Overcast
9:53 AM 64.0 °F 50.0 °F 60% 30.23 in 10.0 mi North 9.2 mph - N/A   Mostly Cloudy
10:53 AM 63.0 °F 48.9 °F 60% 30.25 in 10.0 mi NNW 9.2 mph - N/A   Overcast
11:53 AM 63.0 °F 50.0 °F 63% 30.25 in 10.0 mi NNW 8.1 mph - N/A   Overcast
12:53 PM 62.1 °F 52.0 °F 70% 30.25 in 10.0 mi WNW 4.6 mph - N/A   Overcast
1:53 PM 63.0 °F 51.1 °F 65% 30.26 in 10.0 mi WNW 6.9 mph - N/A   Overcast
2:53 PM 62.1 °F 51.1 °F 67% 30.25 in 10.0 mi NW 6.9 mph - N/A   Overcast
3:53 PM 62.1 °F 50.0 °F 65% 30.25 in 10.0 mi NW 4.6 mph - N/A   Overcast
4:53 PM 62.1 °F 52.0 °F 70% 30.26 in 10.0 mi Calm Calm - 0.00 in Rain Light Rain
5:53 PM 59.0 °F 52.0 °F 78% 30.27 in 10.0 mi WNW 3.5 mph - 0.01 in Rain Light Rain
6:53 PM 57.9 °F 55.0 °F 90% 30.26 in 10.0 mi SSE 3.5 mph - 0.02 in   Overcast
7:53 PM 57.0 °F 55.0 °F 93% 30.26 in 10.0 mi Calm Calm - N/A   Mostly Cloudy
8:53 PM 57.0 °F 54.0 °F 89% 30.27 in 10.0 mi Calm Calm - N/A   Mostly Cloudy
9:53 PM 55.0 °F 54.0 °F 96% 30.26 in 10.0 mi Calm Calm - N/A   Mostly Cloudy
10:53 PM 54.0 °F 52.0 °F 93% 30.27 in 10.0 mi Calm Calm - N/A   Clear
11:53 PM 53.1 °F 51.1 °F 93% 30.29 in 10.0 mi Calm Calm - N/A   Clear